Home   Weather   Portland   Past weeks

Flag for USA Past Weather in Portland, Maine, USA — Yesterday and Last 2 Weeks

Now
51 °F

Fog.


Feels Like: 48 °F
Forecast: 48 / 52 °F
Wind: 9 mph from East

Location: Portland - Portland International Jetport

Current Time: Apr 26, 2017 at 9:36:18 pm

Latest Report: Apr 26, 2017 at 8:51 pm


Visibility: 1 mi

Pressure: 29.90 "Hg

Humidity: 96%

Dew Point: 50 °F

Location of PortlandLocation

Past Weather in Portland — Graph

°F

Portland Temperature Yesterday

Maximum temperature yesterday: 47 °F (at 1:51 pm)
Minimum temperature yesterday: 42 °F (at 4:51 am)
Average temperature yesterday: 44 °F

High & Low Weather Summary for the Past Weeks

 TemperatureHumidityPressure
High85 °F (Apr 16, 2:51 pm)100% (Apr 12, 9:58 pm)30.61 "Hg (Apr 12, 9:58 pm)
Low30 °F (Apr 19, 2:21 am)16% (Apr 14, 2:51 pm)29.56 "Hg (Apr 16, 6:51 pm)
Average47 °F75%30.14 "Hg
* Reported Apr 11 7:51 pm — Apr 26 7:51 pm, Portland, Weather by CustomWeather, © 2017

Note: Actual official high and low records may vary slightly from our data, if they occured in-between our weather recording intervals... More about our weather records

Advertising

Portland Weather History for the Previous 24 Hours

Scroll right to see more
 ConditionsComfort  
Time TempWeatherWind HumidityBarometerVisibility
7:51 pm
Wed, Apr 26
52 °FFog.7 mph97%29.90 "Hg1 mi
6:51 pm52 °FFog.10 mph97%29.90 "Hg1 mi
6:18 pm53 °FFog.8 mph96%29.90 "Hg1 mi
6:05 pm53 °FLight rain. Fog.9 mph96%29.90 "Hg2 mi
5:58 pm53 °FLight rain. Fog.9 mph96%29.90 "Hg2 mi
4:51 pm53 °FLight rain. Fog.3 mph96%29.90 "Hg1 mi
3:51 pm53 °FLight rain. Fog.5 mph96%29.91 "Hg1 mi
3:10 pm53 °FLight rain. Fog.6 mph96%29.92 "Hg1 mi
2:51 pm53 °FLight rain. Fog.5 mph96%29.93 "Hg1 mi
1:51 pm53 °FRain. Fog.8 mph96%29.93 "Hg1 mi
1:11 pm52 °FDrizzle. Fog.5 mph97%29.95 "Hg1 mi
12:51 pm52 °FDrizzle. Fog.3 mph97%29.96 "Hg1 mi
12:00 pm51 °FLight rain. Fog.9 mph96%29.97 "Hg1 mi
10:51 am50 °FLight rain. Fog.10 mph93%29.98 "Hg1 mi
10:35 am50 °FHeavy rain. Fog.9 mph93%29.98 "Hg1 mi
9:51 am49 °FLight rain. Fog.14 mph97%30.00 "Hg1 mi
8:51 am48 °FLight rain. Fog.13 mph93%30.01 "Hg2 mi
8:17 am47 °FLight rain. Fog.7 mph97%30.02 "Hg3 mi
7:51 am47 °FLight rain. Fog.6 mph97%30.02 "Hg1 mi
6:51 am47 °FLight rain. Fog.7 mph93%30.02 "Hg1 mi
6:25 am46 °FLight rain. Fog.7 mph96%30.03 "Hg1 mi
5:51 am46 °FLight rain. Fog.6 mph93%30.03 "Hg2 mi
5:34 am46 °FFog.7 mph93%30.04 "Hg5 mi
4:51 am45 °FLight rain. Fog.7 mph97%30.05 "Hg3 mi
4:14 am45 °FLight rain. Fog.7 mph97%30.06 "Hg3 mi
3:51 am45 °FLight rain. Fog.7 mph97%30.07 "Hg2 mi
3:33 am45 °FLight rain. Fog.3 mph97%30.08 "Hg2 mi
3:09 am45 °FLight rain. Fog.5 mph97%30.08 "Hg4 mi
3:00 am45 °FLight rain. Fog.6 mph93%30.08 "Hg3 mi
2:32 am45 °FLight rain. Fog.6 mph97%30.09 "Hg2 mi
2:05 am45 °FRain. Fog.6 mph97%30.11 "Hg2 mi
1:43 am45 °FLight rain. Fog.9 mph97%30.12 "Hg3 mi
1:12 am45 °FLight rain. Fog.10 mph93%30.13 "Hg4 mi
12:59 am45 °FLight rain. Fog.12 mph93%30.14 "Hg2 mi
12:09 am44 °FLight rain. Fog.10 mph96%30.16 "Hg3 mi
12:01 am44 °FRain. Fog.10 mph96%30.17 "Hg2 mi
10:51 pm
Tue, Apr 25
44 °FLight rain. Fog.12 mph93%30.20 "Hg6 mi
9:51 pm43 °FLight rain. Fog.9 mph93%30.23 "Hg6 mi
Weather by CustomWeather, © 2017

See weather overviewHow to use our weather pages